When you browse on this site, cookies collect data to enhance your experience and personalize the content and advertising you see.
Visit our Privacy Policy to learn more. By continuing to use the site, you agree to this use of cookies and data.
  • En España
  • Lista de países
  • Para 7 días
  • Temperatura del agua
  • Mapa Satelital
  • El tiempo en el mapa
  • Informadores
  • user-avatar
    Iniciar sesión

    Tiempo cada hora Bolshie Baydiki

    Hoy, 21 Marzo, Jueves

    Tiempo Temperatura Precipitaciones Viento Presión Humedad
    00:00 -2°C° 0 mm 2 mps 747 mmHg 90%
    01:00 -2°C° 0 mm 2 mps 746 mmHg 90%
    02:00 -3°C° 0 mm 2 mps 746 mmHg 91%
    03:00 -2°C° 0 mm 3 mps 746 mmHg 91%
    04:00 -2°C° 0 mm 2 mps 746 mmHg 91%
    05:00 -2°C° 0 mm 2 mps 745 mmHg 90%
    06:00 -2°C° 0 mm 2 mps 745 mmHg 90%
    07:00 -2°C° 0 mm 3 mps 745 mmHg 88%
    08:00 -1°C° 0 mm 3 mps 745 mmHg 85%
    09:00 -1°C° 0 mm 3 mps 744 mmHg 83%
    10:00 0°C° 0.1 mm 3 mps 744 mmHg 82%
    11:00 -1°C° 0.1 mm 4 mps 744 mmHg 81%
    12:00 -1°C° 0.1 mm 4 mps 744 mmHg 81%
    13:00 0°C° 0.1 mm 4 mps 743 mmHg 81%
    14:00 0°C° 0.1 mm 4 mps 743 mmHg 82%
    15:00 0°C° 0.1 mm 4 mps 743 mmHg 82%
    16:00 +1°C° 0 mm 3 mps 743 mmHg 85%
    17:00 0°C° 0 mm 3 mps 743 mmHg 87%
    18:00 +1°C° 0 mm 2 mps 743 mmHg 90%
    19:00 +1°C° 0 mm 2 mps 743 mmHg 91%
    20:00 -1°C° 0 mm 2 mps 743 mmHg 92%
    21:00 -2°C° 0 mm 3 mps 743 mmHg 93%
    22:00 -2°C° 0 mm 3 mps 743 mmHg 93%
    23:00 -2°C° 0 mm 3 mps 743 mmHg 93%

    Mañana, 22 Marzo, Viernes

    Tiempo Temperatura Precipitaciones Viento Presión Humedad
    00:00 -2°C° 0 mm 2 mps 743 mmHg 93%
    01:00 -2°C° 0 mm 2 mps 743 mmHg 92%
    02:00 -2°C° 0 mm 2 mps 743 mmHg 91%
    03:00 -2°C° 0 mm 2 mps 743 mmHg 90%
    04:00 -2°C° 0 mm 3 mps 742 mmHg 90%
    05:00 -2°C° 0 mm 3 mps 741 mmHg 91%
    06:00 -2°C° 0 mm 3 mps 741 mmHg 91%
    07:00 -2°C° 0.1 mm 4 mps 740 mmHg 90%
    08:00 -2°C° 0.1 mm 5 mps 739 mmHg 89%
    09:00 -1°C° 0.1 mm 5 mps 738 mmHg 88%
    10:00 -2°C° 0.7 mm 6 mps 737 mmHg 88%
    11:00 -1°C° 0.7 mm 7 mps 735 mmHg 89%
    12:00 -1°C° 0.7 mm 7 mps 734 mmHg 89%
    13:00 -1°C° 0.7 mm 8 mps 734 mmHg 88%
    14:00 -1°C° 0.7 mm 8 mps 734 mmHg 87%
    15:00 -1°C° 0.7 mm 9 mps 733 mmHg 85%
    16:00 -1°C° 0.1 mm 9 mps 734 mmHg 84%
    17:00 -3°C° 0.1 mm 9 mps 734 mmHg 82%
    18:00 -4°C° 0.1 mm 10 mps 734 mmHg 81%
    19:00 -4°C° 0.2 mm 9 mps 735 mmHg 82%
    20:00 -5°C° 0.2 mm 9 mps 735 mmHg 84%
    21:00 -5°C° 0.2 mm 8 mps 735 mmHg 86%
    22:00 -5°C° 0.4 mm 8 mps 735 mmHg 87%
    23:00 -5°C° 0.4 mm 8 mps 735 mmHg 88%

    Pasado mañana, 23 Marzo, Sábado

    Tiempo Temperatura Precipitaciones Viento Presión Humedad
    00:00 -5°C° 0.4 mm 8 mps 735 mmHg 89%
    01:00 -4°C° 0.3 mm 8 mps 736 mmHg 90%
    02:00 -4°C° 0.3 mm 8 mps 736 mmHg 90%
    03:00 -2°C° 0.3 mm 8 mps 737 mmHg 90%
    04:00 -2°C° 0.2 mm 8 mps 738 mmHg 90%
    05:00 -2°C° 0.2 mm 8 mps 739 mmHg 91%
    06:00 -3°C° 0.2 mm 7 mps 740 mmHg 91%
    07:00 -3°C° 0 mm 7 mps 741 mmHg 90%
    08:00 -3°C° 0 mm 7 mps 742 mmHg 90%
    09:00 -3°C° 0 mm 6 mps 743 mmHg 89%
    10:00 -3°C° 0.1 mm 6 mps 743 mmHg 88%
    11:00 -3°C° 0.1 mm 6 mps 744 mmHg 87%
    12:00 -2°C° 0.1 mm 5 mps 744 mmHg 86%
    13:00 -2°C° 0 mm 5 mps 744 mmHg 86%
    14:00 -2°C° 0 mm 5 mps 744 mmHg 85%
    15:00 -1°C° 0 mm 4 mps 744 mmHg 84%
    16:00 -1°C° 0 mm 4 mps 744 mmHg 85%
    17:00 -1°C° 0 mm 3 mps 745 mmHg 85%
    18:00 -1°C° 0 mm 2 mps 745 mmHg 86%
    19:00 -1°C° 0 mm 2 mps 745 mmHg 86%
    20:00 +1°C° 0 mm 1 mps 745 mmHg 87%
    21:00 +1°C° 0 mm 1 mps 745 mmHg 87%
    22:00 0°C° 0 mm 1 mps 745 mmHg 87%
    23:00 0°C° 0 mm 1 mps 745 mmHg 86%

    24 Marzo, Domingo

    Tiempo Temperatura Precipitaciones Viento Presión Humedad
    00:00 0°C° 0 mm 1 mps 744 mmHg 86%
    01:00 0°C° 0 mm 1 mps 744 mmHg 87%
    02:00 -1°C° 0 mm 1 mps 744 mmHg 88%
    03:00 -3°C° 0 mm 2 mps 743 mmHg 88%
    04:00 -3°C° 0 mm 2 mps 743 mmHg 88%
    05:00 -3°C° 0 mm 2 mps 742 mmHg 88%
    06:00 -4°C° 0 mm 3 mps 741 mmHg 88%
    07:00 -4°C° 0 mm 3 mps 741 mmHg 87%
    08:00 -3°C° 0 mm 4 mps 741 mmHg 86%
    09:00 -4°C° 0 mm 5 mps 741 mmHg 84%
    10:00 -2°C° 0.3 mm 5 mps 740 mmHg 87%
    11:00 -2°C° 0.3 mm 5 mps 740 mmHg 89%
    12:00 -3°C° 0.3 mm 6 mps 739 mmHg 91%
    13:00 -2°C° 0.2 mm 5 mps 739 mmHg 92%
    14:00 -1°C° 0.2 mm 5 mps 739 mmHg 92%
    15:00 -1°C° 0.2 mm 5 mps 738 mmHg 93%
    16:00 -1°C° 0 mm 4 mps 738 mmHg 93%
    17:00 0°C° 0 mm 3 mps 738 mmHg 93%
    18:00 +1°C° 0 mm 2 mps 738 mmHg 94%
    19:00 +1°C° 0.1 mm 2 mps 738 mmHg 91%
    20:00 0°C° 0.1 mm 3 mps 738 mmHg 89%
    21:00 -1°C° 0.1 mm 3 mps 738 mmHg 87%
    22:00 -1°C° 0 mm 3 mps 738 mmHg 87%
    23:00 -2°C° 0 mm 3 mps 738 mmHg 87%

    25 Marzo, Lunes

    Tiempo Temperatura Precipitaciones Viento Presión Humedad
    00:00 -4°C° 0 mm 3 mps 738 mmHg 87%
    01:00 -4°C° 0 mm 3 mps 738 mmHg 87%
    02:00 -4°C° 0 mm 3 mps 738 mmHg 87%
    03:00 -5°C° 0 mm 3 mps 738 mmHg 88%
    04:00 -5°C° 0 mm 3 mps 738 mmHg 88%
    05:00 -5°C° 0 mm 3 mps 738 mmHg 89%
    06:00 -5°C° 0 mm 3 mps 739 mmHg 89%
    07:00 -5°C° 0 mm 3 mps 739 mmHg 86%
    08:00 -4°C° 0 mm 4 mps 739 mmHg 83%
    09:00 -3°C° 0 mm 4 mps 739 mmHg 80%
    10:00 -3°C° 0 mm 4 mps 739 mmHg 75%
    11:00 -2°C° 0 mm 4 mps 739 mmHg 70%
    12:00 -1°C° 0 mm 4 mps 739 mmHg 65%
    13:00 -1°C° 0 mm 4 mps 739 mmHg 62%
    14:00 -1°C° 0 mm 4 mps 738 mmHg 59%
    15:00 +1°C° 0 mm 3 mps 738 mmHg 56%
    16:00 0°C° 0 mm 3 mps 738 mmHg 59%
    17:00 +1°C° 0 mm 2 mps 738 mmHg 62%
    18:00 +1°C° 0 mm 2 mps 738 mmHg 65%
    19:00 -1°C° 0 mm 2 mps 738 mmHg 69%
    20:00 -2°C° 0 mm 3 mps 738 mmHg 72%
    21:00 -2°C° 0 mm 3 mps 738 mmHg 75%
    22:00 -2°C° 0 mm 3 mps 738 mmHg 76%
    23:00 -2°C° 0 mm 3 mps 737 mmHg 77%

    26 Marzo, Martes

    Tiempo Temperatura Precipitaciones Viento Presión Humedad
    00:00 -2°C° 0 mm 3 mps 737 mmHg 78%
    01:00 -3°C° 0 mm 4 mps 737 mmHg 78%
    02:00 -3°C° 0 mm 4 mps 737 mmHg 78%
    03:00 -3°C° 0 mm 4 mps 737 mmHg 79%
    04:00 -2°C° 0 mm 3 mps 737 mmHg 78%
    05:00 -2°C° 0 mm 3 mps 737 mmHg 77%
    06:00 -2°C° 0 mm 3 mps 737 mmHg 77%
    07:00 -3°C° 0 mm 4 mps 737 mmHg 74%
    08:00 -2°C° 0 mm 4 mps 737 mmHg 70%
    09:00 -2°C° 0 mm 4 mps 737 mmHg 67%
    10:00 -1°C° 0 mm 4 mps 737 mmHg 64%
    11:00 0°C° 0 mm 4 mps 737 mmHg 61%
    12:00 +1°C° 0 mm 4 mps 737 mmHg 58%
    13:00 +1°C° 0 mm 4 mps 737 mmHg 58%
    14:00 +3°C° 0 mm 4 mps 737 mmHg 58%
    15:00 +3°C° 0 mm 4 mps 737 mmHg 58%
    16:00 +1°C° 0 mm 4 mps 737 mmHg 63%
    17:00 +1°C° 0 mm 3 mps 738 mmHg 67%
    18:00 +1°C° 0 mm 3 mps 738 mmHg 72%
    19:00 0°C° 0 mm 3 mps 738 mmHg 75%
    20:00 -1°C° 0 mm 3 mps 739 mmHg 77%
    21:00 -2°C° 0 mm 4 mps 739 mmHg 79%
    22:00 -2°C° 0 mm 3 mps 740 mmHg 82%
    23:00 -2°C° 0 mm 3 mps 740 mmHg 84%
    Mostrar más